Location: Dealu Mare
(46.0500°N, 22.8167°E)
Time: 23:12:08
(UTC+00:00)

Cosmos 2154 Rocket - Pass Details

Date: 15 January 2026
Orbit: 965 x 997 km, 82.9° (Epoch: 13 February)

Event Time Altitude Azimuth Distance (km) Brightness Sun altitude
Rises 04:34:21 0° 197° (SSW) 3,695 7.0 -15.7°
Reaches altitude 10° 04:36:55 10° 201° (SSW) 2,747 6.3 -15.2°
Maximum altitude 04:43:09 62° 282° (WNW) 1,101 4.0 -14.2°
Drops below altitude 10° 04:49:24 10° 3° (N) 2,744 6.2 -13.1°
Sets 04:51:57 0° 7° (N) 3,692 6.9 -12.7°
